User: anonymous   Login
Location: Unspecified
(0.0000°N, 0.0000°E)
Time: 13:58:49
(UTC+00:00)
Language:

KAITUO 1B - Orbit

View from above orbital plane
View from above orbital plane
View from above satellite
View from above satellite

Ground track
Ground track

The orbit data is extracted from the following two-line orbital elements,

1 40912U 15049P   18018.25323594  .00001058  00000-0  54645-4 0  9998
2 40912  97.4508  27.7394 0015491 167.2746 321.6671 15.18379217128917
Epoch (UTC): 18 January 2018 06:04:39
Eccentricity: 0.0015491
inclination: 97.4508°
perigee height: 500 km
apogee height: 521 km
right ascension of ascending node: 27.7394°
argument of perigee: 167.2746°
revolutions per day: 15.18379217
mean anomaly at epoch: 321.6671°
orbit number at epoch: 12891

The dashed part of the orbit path shows where the satellite is in the earth's shadow,  

DLR